Skip Page Navigation
NASA JPL Caltech
NASA Logo - Jet Propulsion Laboratory + View the NASA Portal
+ Center for Near-Earth Object Studies
JPL Home Earth Solar System Stars & Galaxies Technology
JPL Solar System Dynamics
BODIES ORBITS EPHEMERIDES TOOLS PHYSICAL DATA DISCOVERY FAQ SITE MAP
IMPORTANT: The SSD Announcement email list is now available. Major changes are coming in the near future, including possible hostname and/or URL changes. To be notified of such changes, subscribe to this email list.

Please visit this page for more details.


JPL Small-Body Database Browser
Search: [ help ]  
410803 (2009 JP3)
Classification: Main-belt Asteroid          SPK-ID: 2410803
Ephemeris | Orbit Diagram | Orbital Elements | Mission Design | Physical Parameters | Discovery Circumstances ]

[ show orbit diagram ]
Orbital Elements at Epoch 2458600.5 (2019-Apr-27.0) TDB
Reference: JPL 15 (heliocentric ecliptic J2000)
 Element Value Uncertainty (1-sigma)   Units 
e .0727865596232822 4.5583e-08  
a 2.388909400949381 3.1554e-08 au
q 2.215028904402559 1.0699e-07 au
i 7.616166934623954 5.7772e-06 deg
node 134.2192633582043 4.2982e-05 deg
peri 118.5735261668495 6.3283e-05 deg
M 230.9523068198171 4.7165e-05 deg
tp 2459083.943461661792
(2020-Aug-22.44346166)
0.00017849 TDB
period 1348.645930115482
3.69
2.6721e-05
7.316e-08
d
yr
n .2669344058074411 5.2887e-09 deg/d
Q 2.562789897496202 3.3851e-08 au
  Orbit Determination Parameters
   # obs. used (total)      137  
   data-arc span      3074 days (8.42 yr)  
   first obs. used      2009-03-31  
   last obs. used      2017-08-30  
   planetary ephem.      DE431  
   SB-pert. ephem.      SB431-N16  
   condition code      0  
   norm. resid. RMS      .64009  
   source      ORB  
   producer      Otto Matic  
   solution date      2019-Jul-14 13:14:40  

Additional Information
 Earth MOID = 1.21134 au 
 Jupiter MOID = 2.4808 au 
 T_jup = 3.518 
[ show covariance matrix ]

Ephemeris | Orbit Diagram | Orbital Elements | Mission Design | Physical Parameters | Discovery Circumstances ]

Physical Parameter Table
Parameter Symbol Value Units Sigma Reference Notes
absolute magnitude H 17.0   n/a MPO419026  

410803 (2009 JP3)          Discovered 2009-Mar-31 by Mt. Lemmon Survey at Mount Lemmon
Reference: Last Updated: 2014-10-09

Alternate Designations
 2009 JP3 = 2012 BN105 
Ephemeris | Orbit Diagram | Orbital Elements | Mission Design | Physical Parameters | Discovery Circumstances ]
ABOUT SSD CREDITS/AWARDS PRIVACY/COPYRIGHT GLOSSARY LINKS
FirstGov 2020-Jan-20 18:51 UT
(server date/time)  
NASA Home Page
Site Manager:   Ryan S. Park
Webmaster  Alan B. Chamberlin